#timestamp,LO_Frequency,Hit,StdDev 
1589551215.6,286046999.4,N
1589551235.4,286046998.1,N
1589551255.3,286046999.7,N
1589551275.1,286047002.8,N
1589551295.9,286047002.7,N
1589551315.7,286047000.1,N
1589551335.5,286046996.6,N
1589551355.4,286046998.0,N
1589551375.2,286046996.9,N
1589551395.0,286046996.7,N
1589551395.9,286046996.7,N
1589551415.8,286046994.9,N
1589551435.6,286046996.0,N
1589551455.5,286046995.5,N
1589551475.3,286046997.4,N
1589551495.1,286046995.3,N
1589551515.9,286046997.2,N
1589551535.7,286046998.5,N
1589551555.5,286046998.7,N
1589551575.4,286046999.5,N
1589551595.2,286046998.8,N
1589551615.1,286047001.1,N
1589551616.0,286047001.1,N
1589551635.8,286047001.2,N
1589551655.6,286046998.6,N
1589551675.5,286046997.0,N
1589551695.3,286046997.3,N
1589551715.1,286046997.6,N
1589551735.9,286046995.5,N
1589551755.7,286046995.7,N
1589551775.6,286046995.5,N
1589551795.4,286046996.4,N
1589551815.2,286046994.4,N
1589551835.1,286046992.7,Y
1589551836.0,286046992.7,P
1589551855.8,286046994.6,N
1589551875.6,286046994.3,N
1589551895.5,286046996.1,N
1589551915.3,286046995.3,N
1589551935.2,286046995.5,N
1589551955.9,286046996.2,N
1589551975.7,286046991.7,Y
1589551995.6,286046998.1,P
1589552015.4,286046999.4,N
1589552035.2,286046998.0,N
1589552055.1,286046997.0,N
1589552056.0,286046997.0,N
1589552075.8,286046999.3,N
1589552095.7,286046998.2,N
1589552115.5,286047000.4,N
1589552135.3,286047002.8,N
1589552155.2,286047002.1,N
1589552175.0,286047003.2,N
1589552175.9,286047003.2,N
1589552195.7,286047004.1,N
1589552215.6,286047003.0,N
1589552235.4,286047005.5,N
1589552255.3,286047005.4,N
1589552275.1,286047007.0,N
1589552276.0,286047007.0,N
1589552295.8,286047004.9,N
1589552315.7,286047007.0,N
1589552335.5,286047007.0,N
1589552355.3,286047004.7,N
1589552375.2,286047004.9,N
1589552395.0,286047004.5,N
1589552395.9,286047004.5,N
1589552415.8,286047007.1,N
1589552435.6,286047007.2,N
1589552455.4,286047007.5,N
1589552475.3,286047007.1,N
1589552495.1,286047005.0,N
1589552496.0,286047005.0,N
1589552515.8,286047005.0,N
1589552535.7,286047006.1,N
1589552555.5,286047006.5,N
1589552575.3,286047006.8,N
1589552595.2,286047005.1,N
1589552615.0,286047004.8,N
1589552615.9,286047004.8,N
1589552635.8,286047004.7,Y
1589552655.6,286047000.9,P
1589552675.4,286047001.2,N
1589552695.3,286047001.2,N
1589552715.1,286046999.1,N
1589552735.8,286046996.7,N
1589552755.7,286046999.2,N
1589552775.5,286046998.5,N
1589552795.4,286046998.2,N
1589552815.2,286047000.8,N
1589552835.0,286047000.6,N
1589552835.9,286047000.6,N
1589552855.8,286046999.9,N
1589552875.6,286047001.0,N
1589552895.4,286047000.3,N
1589552915.3,286046998.8,N
1589552935.1,286046996.8,N
1589552955.9,286046999.4,N
1589552975.7,286046998.6,N
1589552995.5,286046998.8,N
1589553015.4,286046999.6,N
1589553035.2,286046998.8,N
1589553055.0,286046999.5,N
1589553055.9,286046999.5,N
1589553075.8,286046998.2,N
1589553095.6,286046999.1,N
1589553115.5,286046996.6,N
1589553135.3,286046996.8,N
1589553155.1,286046997.8,N
1589553175.9,286046996.6,N
1589553195.7,286046998.8,N
1589553215.5,286046996.6,N
1589553235.4,286046997.2,N
1589553255.2,286046996.9,N
1589553275.1,286046998.3,N
1589553276.0,286046998.3,N
1589553295.8,286047000.8,N
1589553315.6,286047000.4,N
1589553335.5,286046998.9,N
1589553355.3,286046999.1,N
1589553375.1,286046999.1,N
1589553395.9,286046996.7,N
1589553415.7,286046997.4,N
1589553435.6,286046997.6,N
1589553455.4,286046995.2,Y
1589553475.2,286046996.7,P
1589553495.1,286046998.9,N
1589553496.0,286046998.9,N
1589553515.8,286046999.5,N
1589553535.7,286046996.5,Y
1589553555.5,286046998.5,P
1589553575.3,286046998.5,P
1589553595.2,286047000.8,P
1589553615.9,286046999.8,N
1589553635.7,286047000.5,N
1589553655.6,286047002.4,N
1589553675.4,286047002.8,N
1589553695.2,286047000.3,N
1589553715.1,286047000.6,N
1589553716.0,286047000.6,N
1589553735.8,286047000.6,N
1589553755.7,286046999.9,N
1589553775.5,286047000.0,N
1589553795.3,286046999.7,N
1589553815.2,286046999.7,N
1589553835.0,286047000.6,N
1589553835.9,286047000.6,N
1589553855.8,286047000.6,N
1589553875.6,286047000.3,N
1589553895.4,286046998.1,N
1589553915.3,286046999.4,N
1589553935.1,286046997.4,N
1589553955.8,286046997.9,N
1589553975.7,286046996.1,Y
1589553995.5,286046993.9,P
1589554015.4,286046992.1,N
1589554035.2,286046994.5,N
1589554055.0,286046993.8,N
1589554055.9,286046993.8,N
1589554075.8,286046996.2,N
1589554095.6,286046997.4,N
1589554115.5,286046997.7,N
1589554135.3,286046995.0,N
1589554155.1,286046995.0,N
1589554175.9,286046996.1,N
1589554195.7,286046993.7,Y
1589554215.6,286046998.1,P
1589554235.4,286046999.2,N
1589554255.2,286046997.0,N
1589554275.1,286046998.9,N
1589554276.0,286046998.9,N
1589554295.8,286047000.8,N
1589554315.6,286047001.5,N
1589554335.5,286047000.2,N
1589554355.3,286047000.0,N
1589554375.2,286047000.0,N
1589554395.9,286047001.9,N
1589554415.7,286047000.0,N
1589554435.6,286046998.8,N
1589554455.4,286046998.3,N
1589554475.2,286047001.2,N
1589554495.1,286047002.4,N
1589554496.0,286047002.4,N
1589554515.8,286046998.2,N
1589554535.7,286046999.4,N
1589554555.5,286046999.4,N
1589554575.3,286046999.2,N
1589554595.2,286046996.5,N
1589554615.0,286046999.3,N
1589554615.9,286046999.3,N
1589554635.7,286046998.5,N
1589554655.6,286046998.9,N
1589554675.4,286046999.0,N
1589554695.3,286046996.9,N
1589554715.1,286046997.5,N
1589554716.0,286046997.5,N
1589554735.8,286046996.9,N
1589554755.7,286046997.1,N
1589554775.5,286046995.0,Y
1589554795.4,286046997.3,P
